Location: East Horndon
(51.5667°N, 0.3500°E)
Time: 11:46:58
(UTC+00:00)

Resurs 1-4 Rocket - Pass Details

Date: 08 November 2025
Orbit: 799 x 811 km, 98.8° (Epoch: 09 December)

Event Time Altitude Azimuth Distance (km) Brightness Sun altitude
Rises 03:44:41 0° 10° (N) 3,334 5.6 -31.1°
Reaches altitude 10° 03:47:12 10° 1° (N) 2,401 4.7 -30.7°
Enters shadow 03:48:12 15° 355° (N) 2,059 4.3 -30.6°
